This is the latest recevied weather packets stored in our database for station/object DM3DP. If no packets are shown the sender has not sent any weather packets the latest 10 day(s).
| Time | Temp. | Humidity | Pressure | Rain* | Wind** | Luminosity | Snow |
|---|---|---|---|---|---|---|---|
| 1777230204 | 13.89° C | 45% | 1021.5 hPa | 0 mm | - | 0 W/m² | - |
| 1777229874 | 14.44° C | 44% | 1021.4 hPa | 0 mm | - | 0 W/m² | - |
| 1777229544 | 14.44° C | 44% | 1021.3 hPa | 0 mm | - | 1 W/m² | - |
| 1777229214 | 14.44° C | 43% | 1021.2 hPa | 0 mm | - | 2 W/m² | - |
| 1777228885 | 15° C | 41% | 1021.1 hPa | 0 mm | - | 3 W/m² | - |
| 1777228554 | 15° C | 41% | 1021.1 hPa | 0 mm | - | 6 W/m² | - |
| 1777228225 | 16.11° C | 39% | 1021.1 hPa | 0 mm | - | 13 W/m² | - |
| 1777227895 | 16.67° C | 38% | 1021 hPa | 0 mm | - | 18 W/m² | - |
| 1777227564 | 16.67° C | 38% | 1021 hPa | 0 mm | - | 23 W/m² | - |
| 1777227234 | 17.78° C | 38% | 1021 hPa | 0 mm | - | 28 W/m² | - |
| 1777226905 | 17.78° C | 37% | 1021 hPa | 0 mm | - | 33 W/m² | - |
| 1777226575 | 17.78° C | 37% | 1021 hPa | 0 mm | - | 37 W/m² | - |
| 1777226244 | 16.67° C | 36% | 1021 hPa | 0 mm | - | 41 W/m² | - |
| 1777225915 | 16.67° C | 37% | 1021 hPa | 0 mm | - | 42 W/m² | - |
| 1777225585 | 16.67° C | 36% | 1021 hPa | 0 mm | - | 43 W/m² | - |
| 1777225254 | 16.67° C | 36% | 1020.9 hPa | 0 mm | - | 43 W/m² | - |
| 1777224924 | 16.67° C | 36% | 1020.8 hPa | 0 mm | - | 45 W/m² | - |
| 1777224595 | 16.67° C | 36% | 1020.8 hPa | 0 mm | - | 53 W/m² | - |
| 1777224265 | 16.67° C | 35% | 1020.8 hPa | 0 mm | - | 113 W/m² | - |
| 1777223935 | 16.67° C | 35% | 1020.8 hPa | 0 mm | - | 252 W/m² | - |
| 1777223604 | 17.22° C | 33% | 1020.8 hPa | 0 mm | - | 384 W/m² | - |
| 1777223275 | 17.22° C | 33% | 1020.8 hPa | 0 mm | - | 288 W/m² | - |
| 1777222944 | 17.22° C | 31% | 1020.9 hPa | 0 mm | - | 276 W/m² | - |
| 1777222614 | 17.22° C | 32% | 1020.9 hPa | 0 mm | - | 347 W/m² | - |
| 1777222284 | 17.22° C | 32% | 1020.9 hPa | 0 mm | - | 445 W/m² | - |
* Rain latest hour (hover to see other rain measurements)
** Current wind speed in m/s (hover to see current wind gust speed)